Location: Adrasan
(36.3319°N, 30.4314°E)
Time: 07:01:05
(UTC+00:00)

Meteor 1-5 Rocket - Pass Details

Date: 09 December 2023
Orbit: 788 x 915 km, 81.2° (Epoch: 29 February)

Event Time Altitude Azimuth Distance (km) Brightness Sun altitude
Rises 15:40:12 0° 356° (N) 3,469 7.2 -11.3°
Reaches altitude 10° 15:42:40 10° 1° (N) 2,545 6.5 -11.8°
Maximum altitude 15:48:23 56° 79° (E) 1,061 4.4 -12.9°
Drops below altitude 10° 15:54:11 10° 157° (SSE) 2,588 6.7 -14.0°
Sets 15:56:42 0° 161° (SSE) 3,531 7.4 -14.5°
